FENGYUN 1C DEB, 41824

Orbit data source: Space-Track

FENGYUN 1C DEB, 41824 is space debris in SSO originally from a launch on Mon, 10 May 1999 UTC launched from the Taiyaun Space Center, China (TSC). Fengyun 1C debris stems from the Chinese weather satellite Fengyun-1C, which was intentionally destroyed by a Chinese anti-satellite missile in 2007. This event dramatically increased the amount of space debris, with thousands of trackable fragments posing hazards to satellites and human spaceflight. The Fengyun 1C debris cloud has become a focal point in discussions about space sustainability and the need for international regulations to prevent the creation of new debris.

Loading next visibility...
Identifier
41824, 1999-025EYB
Orbit
SSO
Country
Flag of CNCN / PRC
Related business
Manufacturer
Unknown
Mission
Spacecraft
Bus & Motor
Unknown
Mass
Unknown
Launch date (UTC)
1999-05-10 (27 years ago)
Launch vehicle
Unknown
Launch site
Taiyaun Space Center, China (TSC)
Object type
Payload
Rocket body
Debris
Shape & HBR
Unknown shape, 0.1 m
Radar Cross Section
Small (<0.1 m²)

Expand to show TLE details & history
Last TLE update: 3 days ago

TLE from 3 days ago
0 FENGYUN 1C DEB
1 41824U 99025EYB 26170.67194159  .00002005  00000-0  85430-3 0  9992
2 41824  98.7150 238.4824 0056056  42.4582 318.0913 14.25395687500504
Epoch: 2026-06-19T16:07Z
TLE epoch observation values (Epoch: 2026-06-19T16:07:35.753Z)
Latitude
-0.00006°
Longitude
88.68588°
Altitude
780.205 km
Speed
7.479 km/s
True Right ascension
15h 53m 55s
True Declination
0° 00' 00"
Sunlit
Object was in full shadow at epoch
Visualization orbit readout
Latitude
Unknown
Longitude
Unknown
Altitude
Unknown
Speed
Unknown
Apparent Right ascension
Unknown
Apparent Declination
Unknown
Sunlit
N/A
Visualization observer readout
Local Sidereal Time
21:39:19
Azimuth
Unknown
Elevation
Unknown
Doppler factor
Unknown
Orbital elements
Apogee altitude
844.576 km
Perigee altitude
764.052 km
Semi-major axis
7,182.451 km
Eccentricity
0.00561
Inclination
98.715°
RAAN
238.4824°
Arg. of periapsis
42.4582°
True anomaly
317.66°
Mean anomaly
318.0913°
Eccentric anomaly
317.87587°
Mean motion
3.56561 °/min
Orbital period
100.96 mins
BSTAR
0.0008543
Loading maneuver chart data...
Computing Atmospheric mass density...
Loading historical data...
Loading historical data...
Loading historical data...
Loading historical data...
Loading historical data...
Loading historical data...
Loading historical data...

Documentation

Showing up to 5 results
|